Location: Chandrammap?lem
(16.9200°N, 81.0051°E)
Time: 07:03:05
(UTC+00:00)

Meteor 1-5 Rocket - Pass Details

Date: 29 May 2024
Orbit: 788 x 914 km, 81.2° (Epoch: 19 June)

Event Time Altitude Azimuth Distance (km) Brightness Sun altitude
Rises 14:21:42 0° 355° (N) 3,436 7.9 -17.2°
Reaches altitude 10° 14:24:10 10° 357° (N) 2,480 7.1 -17.7°
Maximum altitude 14:29:47 82° 83° (E) 843 4.1 -18.9°
Enters shadow 14:33:22 22° 170° (S) 1,704 5.4 -19.6°
